EZY36VJ EGGD-LFMN

Flight info

Callsign EZY36VJ
Flight time N/A
Altitude 33000
Route HAWFA L607 ALHAD UN859 VAPID L18 MID UL612 VEULE DCT KOTAP DCT KETEX DCT KOTIS DCT KUKOR DCT UTUVA DCT LERGA DCT LIQID DCT LATAM DCT TUNUR DCT NISAR
Aircraft A320/M-SDE3FGHIRWY/LB1

Departure

Time N/A
Airport Bristol Airport (EGGD)

Arrival

Time 2026-05-05 21:13
Airport Nice-Côte d'Azur Airport (LFMN)
Time Latitude Longitude Altitude Speed Heading
2026-05-05 20:18 47.72284 2.56284 32864 ft 444 kts 162°
2026-05-05 20:19 47.66426 2.59164 32874 ft 443 kts 162°
2026-05-05 20:19 47.60575 2.62032 32870 ft 443 kts 162°
2026-05-05 20:20 47.54725 2.64882 32870 ft 442 kts 162°
2026-05-05 20:20 47.48834 2.67741 32867 ft 442 kts 162°
2026-05-05 20:21 47.42991 2.70577 32869 ft 442 kts 162°
2026-05-05 20:21 47.37147 2.73416 32865 ft 442 kts 162°
2026-05-05 20:22 47.31261 2.76268 32868 ft 442 kts 162°
2026-05-05 20:22 47.26392 2.78616 32867 ft 442 kts 163°
2026-05-05 20:23 47.20545 2.81431 32863 ft 442 kts 163°
2026-05-05 20:23 47.14695 2.84238 32868 ft 442 kts 163°
2026-05-05 20:24 47.08837 2.87039 32872 ft 442 kts 163°
2026-05-05 20:24 47.02987 2.89836 32869 ft 442 kts 163°
2026-05-05 20:25 46.97146 2.92620 32874 ft 441 kts 163°
2026-05-05 20:25 46.91308 2.95400 32883 ft 441 kts 163°
2026-05-05 20:26 46.85477 2.98167 32890 ft 440 kts 163°
2026-05-05 20:26 46.79651 3.00931 32888 ft 440 kts 163°
2026-05-05 20:27 46.73831 3.03684 32886 ft 440 kts 163°
2026-05-05 20:27 46.68050 3.06407 32888 ft 439 kts 163°
2026-05-05 20:28 46.62229 3.09145 32889 ft 439 kts 163°
2026-05-05 20:28 46.56407 3.11877 32887 ft 439 kts 163°
2026-05-05 20:29 46.50612 3.14691 32886 ft 439 kts 162°
2026-05-05 20:29 46.44882 3.17814 32888 ft 440 kts 161°
2026-05-05 20:30 46.39174 3.20997 32870 ft 439 kts 161°
2026-05-05 20:30 46.33453 3.24104 32885 ft 439 kts 161°
2026-05-05 20:31 46.27724 3.27153 32888 ft 438 kts 162°
2026-05-05 20:31 46.22029 3.30178 32890 ft 438 kts 162°
2026-05-05 20:32 46.16312 3.33220 32893 ft 438 kts 162°
2026-05-05 20:32 46.10599 3.36259 32892 ft 438 kts 162°
2026-05-05 20:33 46.04888 3.39300 32895 ft 437 kts 162°
2026-05-05 20:33 45.99183 3.42328 32895 ft 437 kts 162°
2026-05-05 20:34 45.93477 3.45342 32889 ft 437 kts 162°
2026-05-05 20:34 45.87770 3.48348 32903 ft 436 kts 162°
2026-05-05 20:35 45.82029 3.51144 32904 ft 435 kts 166°
2026-05-05 20:35 45.76258 3.53551 32901 ft 434 kts 167°
2026-05-05 20:36 45.70440 3.55941 32897 ft 434 kts 167°
2026-05-05 20:36 45.64644 3.58409 32898 ft 434 kts 166°
2026-05-05 20:37 45.58863 3.60904 32902 ft 434 kts 166°
2026-05-05 20:37 45.53085 3.63390 32908 ft 434 kts 166°
2026-05-05 20:38 45.47303 3.65863 32909 ft 433 kts 167°
2026-05-05 20:38 45.41530 3.68320 32911 ft 432 kts 167°
2026-05-05 20:39 45.35762 3.70767 32918 ft 432 kts 167°
2026-05-05 20:39 45.30022 3.73351 32909 ft 435 kts 161°
2026-05-05 20:40 45.24938 3.78036 32907 ft 446 kts 141°
2026-05-05 20:40 45.22875 3.81359 32900 ft 453 kts 130°
2026-05-05 20:40 45.21138 3.85121 32892 ft 455 kts 128°
2026-05-05 20:41 45.17713 3.92686 32888 ft 456 kts 128°
2026-05-05 20:41 45.14255 4.00235 32893 ft 457 kts 128°
2026-05-05 20:42 45.10789 4.07791 32884 ft 457 kts 128°
2026-05-05 20:42 45.07317 4.15344 32895 ft 458 kts 129°
2026-05-05 20:43 45.03826 4.22876 32880 ft 457 kts 131°
2026-05-05 20:43 44.99699 4.29607 32913 ft 452 kts 138°
2026-05-05 20:44 44.95440 4.36143 32915 ft 452 kts 138°
2026-05-05 20:44 44.91200 4.42645 32915 ft 453 kts 138°
2026-05-05 20:45 44.84791 4.52463 32913 ft 453 kts 139°
2026-05-05 20:45 44.80507 4.58999 32900 ft 453 kts 139°
2026-05-05 20:46 44.76220 4.65524 32921 ft 454 kts 139°
2026-05-05 20:46 44.71929 4.72048 32923 ft 454 kts 139°
2026-05-05 20:47 44.67660 4.78518 32930 ft 454 kts 139°
2026-05-05 20:47 44.63360 4.85011 32928 ft 454 kts 139°
2026-05-05 20:48 44.59157 4.91640 32928 ft 455 kts 137°
2026-05-05 20:48 44.55016 4.98363 32911 ft 455 kts 137°
2026-05-05 20:49 44.50885 5.05014 32912 ft 454 kts 138°
2026-05-05 20:49 44.46705 5.11652 32907 ft 453 kts 139°
2026-05-05 20:50 44.42522 5.18252 32918 ft 453 kts 139°
2026-05-05 20:50 44.38336 5.24848 32930 ft 453 kts 140°
2026-05-05 20:51 44.33674 5.30536 32025 ft 443 kts 149°
2026-05-05 20:51 44.31248 5.33191 30370 ft 445 kts 149°
2026-05-05 20:51 44.28821 5.35828 29428 ft 439 kts 150°
2026-05-05 20:52 44.26409 5.38437 29153 ft 439 kts 150°
2026-05-05 20:52 44.23993 5.41044 28865 ft 439 kts 150°
2026-05-05 20:52 44.21600 5.43626 28585 ft 440 kts 150°
2026-05-05 20:52 44.19176 5.46239 28191 ft 441 kts 149°
2026-05-05 20:53 44.16747 5.48865 27688 ft 443 kts 149°
2026-05-05 20:53 44.14310 5.51506 27191 ft 445 kts 148°
2026-05-05 20:53 44.11865 5.54165 26689 ft 447 kts 148°
2026-05-05 20:53 44.09403 5.56848 26183 ft 449 kts 148°
2026-05-05 20:54 44.06942 5.59525 25660 ft 449 kts 148°
2026-05-05 20:54 44.04482 5.62192 25177 ft 447 kts 148°
2026-05-05 20:54 44.02027 5.64839 24677 ft 445 kts 147°
2026-05-05 20:54 43.99587 5.67463 24173 ft 443 kts 147°
2026-05-05 20:55 43.97148 5.70081 23680 ft 441 kts 147°
2026-05-05 20:55 43.94731 5.72672 23120 ft 438 kts 147°
2026-05-05 20:55 43.92356 5.75218 22651 ft 435 kts 147°
2026-05-05 20:55 43.89968 5.77778 22164 ft 431 kts 147°
2026-05-05 20:56 43.87600 5.80314 21669 ft 428 kts 147°
2026-05-05 20:56 43.85253 5.82828 21202 ft 424 kts 147°
2026-05-05 20:56 43.82922 5.85322 20716 ft 421 kts 147°
2026-05-05 20:56 43.80608 5.87792 20242 ft 417 kts 147°
2026-05-05 20:57 43.78316 5.90231 19772 ft 414 kts 147°
2026-05-05 20:57 43.76043 5.92651 19313 ft 411 kts 147°
2026-05-05 20:57 43.73790 5.95054 18845 ft 407 kts 147°
2026-05-05 20:57 43.71583 5.97401 18393 ft 404 kts 147°
2026-05-05 20:58 43.69360 5.99764 17902 ft 400 kts 147°
2026-05-05 20:58 43.67157 6.02105 17438 ft 399 kts 147°
2026-05-05 20:58 43.64960 6.04433 16997 ft 397 kts 147°
2026-05-05 20:58 43.62776 6.06744 16549 ft 395 kts 146°
2026-05-05 20:59 43.60775 6.09361 16091 ft 399 kts 135°
2026-05-05 20:59 43.59137 6.12479 15495 ft 405 kts 126°
2026-05-05 20:59 43.57952 6.16030 14871 ft 404 kts 114°
2026-05-05 20:59 43.57045 6.19538 14721 ft 374 kts 115°
2026-05-05 21:00 43.56175 6.22781 14598 ft 348 kts 116°
2026-05-05 21:00 43.55352 6.25773 14334 ft 330 kts 116°
2026-05-05 21:00 43.54535 6.28689 13793 ft 324 kts 116°
2026-05-05 21:00 43.53721 6.31562 13115 ft 319 kts 116°
2026-05-05 21:01 43.52917 6.34396 12466 ft 315 kts 116°
2026-05-05 21:01 43.52129 6.37182 12253 ft 312 kts 116°
2026-05-05 21:01 43.51345 6.39971 12110 ft 313 kts 115°
2026-05-05 21:01 43.50487 6.42710 11974 ft 308 kts 124°
2026-05-05 21:02 43.49248 6.45111 11638 ft 306 kts 136°
2026-05-05 21:02 43.47784 6.47231 11190 ft 305 kts 137°
2026-05-05 21:02 43.46320 6.49331 10790 ft 304 kts 137°
2026-05-05 21:02 43.44861 6.51426 10377 ft 303 kts 136°
2026-05-05 21:03 43.43414 6.53504 10051 ft 299 kts 136°
2026-05-05 21:03 43.41983 6.55558 9821 ft 292 kts 136°
2026-05-05 21:03 43.40628 6.57527 9564 ft 276 kts 133°
2026-05-05 21:03 43.39621 6.59735 9040 ft 272 kts 114°
2026-05-05 21:04 43.39187 6.62252 8486 ft 271 kts 95°
2026-05-05 21:04 43.39351 6.64721 8263 ft 258 kts 78°
2026-05-05 21:04 43.39837 6.67066 7809 ft 252 kts 76°
2026-05-05 21:04 43.40322 6.69364 7416 ft 249 kts 76°
2026-05-05 21:05 43.40802 6.71647 7098 ft 249 kts 76°
2026-05-05 21:05 43.41281 6.73925 6767 ft 247 kts 76°
2026-05-05 21:05 43.41756 6.76184 6438 ft 245 kts 77°
2026-05-05 21:05 43.42227 6.78431 6086 ft 243 kts 77°
2026-05-05 21:06 43.42694 6.80654 5752 ft 241 kts 77°
2026-05-05 21:06 43.43154 6.82848 5674 ft 239 kts 76°
2026-05-05 21:06 43.43618 6.85057 5572 ft 240 kts 76°
2026-05-05 21:06 43.44082 6.87271 5461 ft 241 kts 76°
2026-05-05 21:07 43.44544 6.89486 5369 ft 241 kts 76°
2026-05-05 21:07 43.44999 6.91674 5264 ft 241 kts 75°
2026-05-05 21:07 43.45734 6.93736 5131 ft 244 kts 53°
2026-05-05 21:07 43.46912 6.95428 4830 ft 243 kts 46°
2026-05-05 21:08 43.48114 6.97062 4544 ft 242 kts 45°
2026-05-05 21:08 43.49307 6.98680 4272 ft 240 kts 46°
2026-05-05 21:08 43.50492 7.00291 4031 ft 239 kts 46°
2026-05-05 21:08 43.51667 7.01895 3747 ft 237 kts 45°
2026-05-05 21:09 43.52834 7.03488 3439 ft 235 kts 46°
2026-05-05 21:09 43.53979 7.05053 3132 ft 234 kts 45°
2026-05-05 21:09 43.55116 7.06606 2818 ft 224 kts 45°
2026-05-05 21:09 43.56199 7.08088 2529 ft 214 kts 45°
2026-05-05 21:10 43.57233 7.09502 2247 ft 205 kts 45°
2026-05-05 21:10 43.58213 7.10843 2003 ft 192 kts 45°
2026-05-05 21:10 43.58834 7.11695 1813 ft 186 kts 45°
2026-05-05 21:10 43.59717 7.12905 1584 ft 169 kts 45°
2026-05-05 21:11 43.60522 7.14008 1375 ft 157 kts 45°
2026-05-05 21:11 43.61284 7.15052 1168 ft 149 kts 47°
2026-05-05 21:11 43.62007 7.16044 971 ft 145 kts 47°
2026-05-05 21:11 43.62709 7.17008 770 ft 144 kts 46°
2026-05-05 21:12 43.63419 7.17982 570 ft 144 kts 46°
2026-05-05 21:12 43.64130 7.18950 367 ft 142 kts 45°
2026-05-05 21:12 43.64836 7.19918 163 ft 143 kts 46°
2026-05-05 21:12 43.65527 7.20881 24 ft 131 kts 45°
2026-05-05 21:13 43.66060 7.21611 19 ft 83 kts 45°
2026-05-05 21:13 43.66349 7.22007 23 ft 37 kts 45°
2026-05-05 21:13 43.66464 7.22126 22 ft 17 kts 358°
2026-05-05 21:13 43.66530 7.22058 21 ft 0 kts 314°
2026-05-05 21:14 43.66531 7.22056 21 ft 2 kts 314°
2026-05-05 21:14 43.66556 7.22018 21 ft 5 kts 307°
2026-05-05 21:14 43.66580 7.21986 21 ft 4 kts 316°
2026-05-05 21:14 43.66635 7.21913 21 ft 11 kts 316°
2026-05-05 21:15 43.66631 7.21831 21 ft 9 kts 226°
2026-05-05 21:15 43.66586 7.21774 21 ft 10 kts 223°
2026-05-05 21:15 43.66514 7.21674 21 ft 16 kts 225°
2026-05-05 21:15 43.66439 7.21570 21 ft 15 kts 224°
2026-05-05 21:16 43.66370 7.21477 21 ft 13 kts 225°
2026-05-05 21:16 43.66315 7.21386 21 ft 12 kts 225°
2026-05-05 21:16 43.66260 7.21310 21 ft 11 kts 225°
2026-05-05 21:16 43.66211 7.21242 21 ft 10 kts 225°
2026-05-05 21:17 43.66146 7.21152 21 ft 13 kts 225°
2026-05-05 21:17 43.66083 7.21066 21 ft 12 kts 225°
2026-05-05 21:17 43.66027 7.20988 21 ft 11 kts 225°
2026-05-05 21:17 43.65976 7.20918 21 ft 10 kts 224°
2026-05-05 21:18 43.65930 7.20856 21 ft 9 kts 224°
2026-05-05 21:18 43.65905 7.20822 21 ft 1 kts 224°
2026-05-05 21:18 43.65904 7.20821 21 ft 0 kts 224°
2026-05-05 21:19 43.65859 7.20768 21 ft 13 kts 220°
2026-05-05 21:19 43.65852 7.20759 21 ft 0 kts 220°
2026-05-05 21:20 43.65848 7.20754 21 ft 5 kts 220°
2026-05-05 21:20 43.65839 7.20727 21 ft 1 kts 308°
2026-05-05 21:20 43.65863 7.20711 21 ft 6 kts 337°
2026-05-05 21:21 43.65899 7.20693 22 ft 5 kts 340°
2026-05-05 21:21 43.65912 7.20686 21 ft 0 kts 340°
2026-05-05 21:21 43.65913 7.20686 21 ft 0 kts 340°